TimeCDT,TemperatureF,Dew PointF,Humidity,Sea Level PressureIn,VisibilityMPH,Wind Direction,Wind SpeedMPH,Gust SpeedMPH,PrecipitationIn,Events,Conditions,WindDirDegrees,DateUTC
12:53 AM,48.9,46.0,90,30.01,10.0,Calm,Calm,-,N/A,,Clear,0,2013-10-21 05:53:00
1:53 AM,48.0,46.0,93,30.01,10.0,Calm,Calm,-,N/A,,Clear,0,2013-10-21 06:53:00
2:53 AM,50.0,46.9,89,30.02,10.0,Calm,Calm,-,N/A,,Overcast,0,2013-10-21 07:53:00
3:53 AM,48.9,46.0,90,30.02,10.0,Calm,Calm,-,N/A,,Overcast,0,2013-10-21 08:53:00
4:53 AM,48.9,45.0,86,30.03,10.0,Calm,Calm,-,N/A,,Overcast,0,2013-10-21 09:53:00
5:53 AM,48.9,46.9,93,30.04,10.0,Calm,Calm,-,N/A,,Mostly Cloudy,0,2013-10-21 10:53:00
6:53 AM,48.9,46.9,93,30.05,10.0,Calm,Calm,-,N/A,,Overcast,0,2013-10-21 11:53:00
7:53 AM,50.0,46.0,86,30.06,10.0,Calm,Calm,-,N/A,,Overcast,0,2013-10-21 12:53:00
8:53 AM,54.0,46.0,75,30.07,10.0,SW,4.6,-,N/A,,Mostly Cloudy,220,2013-10-21 13:53:00
9:53 AM,57.0,46.9,69,30.07,10.0,Calm,Calm,-,N/A,,Scattered Clouds,0,2013-10-21 14:53:00
10:53 AM,64.9,46.9,52,30.06,10.0,SW,6.9,-,N/A,,Clear,230,2013-10-21 15:53:00
11:53 AM,66.0,46.9,50,30.06,10.0,WSW,4.6,-,0.00,Rain,Light Rain,240,2013-10-21 16:53:00
12:53 PM,68.0,48.9,50,30.04,10.0,SSW,5.8,-,0.00,,Clear,200,2013-10-21 17:53:00
1:53 PM,70.0,48.0,46,30.01,10.0,Variable,4.6,-,N/A,,Mostly Cloudy,0,2013-10-21 18:53:00
2:53 PM,71.1,50.0,47,29.99,10.0,WSW,4.6,-,N/A,,Overcast,240,2013-10-21 19:53:00
3:53 PM,71.1,52.0,51,29.99,10.0,WSW,6.9,-,N/A,,Partly Cloudy,240,2013-10-21 20:53:00
4:53 PM,70.0,51.1,51,29.98,10.0,WSW,5.8,-,N/A,,Partly Cloudy,240,2013-10-21 21:53:00
5:53 PM,68.0,54.0,61,29.98,10.0,WNW,3.5,-,N/A,,Overcast,290,2013-10-21 22:53:00
6:53 PM,66.0,55.0,68,30.00,10.0,WNW,4.6,-,N/A,,Overcast,300,2013-10-21 23:53:00
7:53 PM,63.0,55.9,78,30.02,10.0,NNW,10.4,-,N/A,,Overcast,330,2013-10-22 00:53:00
8:53 PM,61.0,57.0,87,30.04,10.0,North,12.7,-,N/A,,Overcast,360,2013-10-22 01:53:00
9:28 PM,57.2,53.6,88,30.05,10.0,North,9.2,-,N/A,,Mostly Cloudy,350,2013-10-22 02:28:00
9:53 PM,57.9,52.0,81,30.05,10.0,NNE,6.9,-,N/A,,Overcast,30,2013-10-22 02:53:00
10:53 PM,57.0,53.1,87,30.06,10.0,North,6.9,-,0.01,Rain,Light Rain,360,2013-10-22 03:53:00
11:53 PM,55.9,53.1,90,30.05,8.0,NNE,6.9,-,0.02,Rain,Rain,20,2013-10-22 04:53:00